Theta_e
320 320 320 320 320 320 320 321 322 323 323 323 322 322 322 322 322 322 322 322 321 321 321 321 321 320 320 319 319 320 323 324 325 326 325 325 325 326 326 326 326 326
320 320 320 320 320 320 320 319 319 320 321 321 321 322 323 324 325 325 324 324 323 323 323 322 322 322 322 321 321 321 321 322 323 324 326 326 327 327 327 328 328 328
318 319 319 319 319 319 319 318 319 319 319 320 320 321 322 324 325 326 326 325 325 324 324 324 323 323 323 323 323 323 322 321 321 321 323 325 325 325 325 326 327 327
316 317 318 318 319 319 319 319 318 318 319 319 320 321 322 323 325 326 326 326 325 325 325 325 324 324 324 324 323 323 323 323 322 322 323 323 323 323 323 324 325 325
316 316 316 317 318 318 319 318 318 317 318 319 319 319 321 322 323 325 326 326 325 325 325 325 325 325 325 324 324 324 324 324 323 323 323 323 323 322 322 323 324 324
315 316 316 316 317 318 318 318 317 317 318 318 318 318 319 320 321 322 323 324 324 325 325 325 325 325 325 325 325 324 324 324 324 324 324 323 323 322 322 323 323 324
315 315 315 316 317 317 318 318 318 318 317 317 317 317 317 318 319 320 321 322 323 323 324 324 324 325 324 325 325 325 325 325 325 324 324 324 324 323 323 323 323 324
316 314 315 316 317 317 318 318 318 317 317 317 317 316 316 317 318 319 320 321 322 322 323 323 324 324 324 325 325 325 325 325 325 324 324 324 324 324 323 323 324 324
318 315 314 314 315 317 317 317 317 316 316 316 316 316 315 316 317 318 320 321 321 321 321 322 323 324 324 325 325 325 325 325 325 325 325 324 324 324 323 323 323 323
319 317 315 313 313 314 314 315 315 315 315 315 314 314 315 315 316 318 319 320 321 320 321 322 323 323 324 325 325 325 324 325 325 325 325 325 325 324 324 323 323 323
319 318 317 314 312 312 313 313 313 313 313 313 313 313 314 314 315 317 318 319 319 320 320 322 322 323 323 324 324 324 324 324 324 324 325 325 325 324 324 324 324 323
318 318 318 316 313 312 311 312 312 312 312 312 312 313 313 313 314 315 317 318 319 320 321 321 321 322 323 323 323 323 323 323 323 324 324 324 324 323 323 323 323 323
318 318 319 318 316 314 313 312 312 311 311 311 311 311 311 312 313 314 316 317 318 319 319 320 320 321 322 322 322 322 323 323 323 323 323 323 323 322 322 322 322 322
318 318 318 318 318 318 317 316 315 313 312 310 310 310 310 310 310 311 313 315 316 317 317 319 320 321 320 320 321 321 321 322 322 322 322 322 322 322 322 322 322 321
317 318 318 318 318 319 319 319 318 316 313 311 311 310 309 310 309 309 310 311 313 313 314 315 317 317 317 317 318 320 321 321 321 321 321 321 322 322 322 322 321 321
317 318 318 318 318 318 319 319 319 318 315 313 312 311 310 310 310 310 310 310 311 312 312 313 313 313 313 312 313 315 317 319 320 321 321 321 321 321 321 321 321 321
317 317 318 318 318 318 318 318 319 319 318 315 312 311 310 310 309 310 310 310 311 312 312 313 313 312 311 310 310 311 312 314 317 318 319 320 321 321 321 321 321 322
317 317 317 318 318 318 318 318 318 318 319 317 314 313 311 310 310 310 310 310 310 311 312 313 313 313 311 310 310 310 311 312 314 316 317 318 319 320 320 321 321 322
316 316 316 316 317 318 318 318 318 318 318 318 317 315 314 312 311 310 310 311 310 311 312 312 312 312 311 310 309 309 310 311 312 315 316 317 318 319 320 320 321 322
313 313 314 314 315 317 317 317 318 318 318 318 318 317 316 315 314 312 310 310 310 311 311 311 313 313 311 310 309 309 309 309 310 312 315 316 318 319 319 320 321 321
311 311 312 312 313 314 315 316 317 317 318 318 318 318 318 318 317 315 313 311 310 310 311 312 313 313 311 310 309 309 309 308 308 310 313 314 316 317 318 319 320 321
312 311 311 311 311 312 312 313 314 315 316 317 317 318 318 318 318 318 317 315 313 311 310 312 313 313 311 310 310 309 309 309 308 309 310 311 313 315 317 318 319 320
312 312 312 311 311 311 311 312 312 312 313 315 316 317 317 318 318 318 318 318 317 315 312 311 312 313 312 310 310 309 309 309 309 308 308 309 310 312 314 316 318 318
311 311 312 312 311 311 311 311 311 311 312 312 313 315 316 317 317 317 318 318 318 318 316 313 312 312 312 312 310 309 309 309 309 309 308 308 308 309 311 313 315 317
311 311 311 311 311 311 311 311 311 311 311 311 312 312 313 314 315 316 317 317 317 318 317 316 314 312 311 312 311 310 309 309 309 309 308 309 309 308 309 310 312 315
310 311 311 311 311 311 311 311 311 311 312 312 311 311 311 312 313 313 315 316 316 317 317 317 315 313 311 310 310 309 309 309 309 308 309 309 309 308 308 308 310 312
Wind_Speed
28 29 31 32 34 35 36 38 38 39 39 40 42 44 44 44 44 43 43 42 42 42 41 40 40 40 40 41 41 43 44 44 45 45 46 47 47 47 48 47 46 46
29 30 30 31 32 32 33 33 33 33 34 36 39 41 42 43 43 42 43 43 43 44 43 42 41 41 41 41 41 42 44 44 44 44 44 46 47 47 48 48 47 47
27 29 31 32 33 32 31 29 29 30 31 33 36 38 40 41 41 41 42 42 43 44 44 44 43 43 42 41 41 43 44 44 43 43 44 45 46 47 48 48 47 46
24 26 29 31 33 33 31 30 31 32 32 33 33 35 37 39 40 41 41 42 42 43 43 44 44 43 43 42 42 43 44 43 42 41 43 45 45 46 46 46 46 46
24 25 27 29 30 30 31 32 33 33 32 32 32 32 34 36 38 40 40 41 42 42 42 43 43 43 42 42 42 43 44 43 42 41 43 45 45 45 45 45 46 46
22 25 27 28 28 27 27 28 28 29 30 30 30 30 31 33 35 37 39 40 41 41 41 41 42 42 41 42 42 44 44 43 42 42 43 44 44 44 44 45 47 47
20 22 24 26 26 25 26 26 26 27 28 28 29 29 30 31 33 34 36 38 39 40 40 40 41 41 41 42 43 44 44 43 43 43 44 44 44 44 44 45 47 47
22 20 20 22 25 26 28 28 29 29 28 28 28 28 29 30 32 32 33 35 36 38 38 39 40 41 42 43 43 44 44 44 44 44 45 45 45 45 44 44 45 46
24 22 20 21 23 26 29 29 30 29 29 29 29 28 29 30 31 32 33 33 35 36 37 37 37 38 40 42 43 43 44 45 45 45 45 45 45 45 44 43 44 44
25 24 22 21 22 25 27 28 28 28 28 29 29 29 30 30 31 32 32 33 34 35 36 36 36 35 36 39 41 42 42 43 44 46 46 46 45 44 44 43 43 44
25 24 23 22 23 23 24 25 26 27 28 28 29 29 30 30 31 31 32 33 34 34 35 36 36 35 35 37 39 40 40 41 42 44 45 45 44 43 43 42 43 43
25 24 23 22 22 23 23 24 25 26 27 28 28 29 30 30 31 31 32 33 33 33 35 36 36 36 36 36 38 39 40 39 40 42 43 43 43 43 42 42 43 43
26 25 23 22 21 21 22 23 24 26 27 27 27 28 29 30 31 31 31 32 33 33 34 35 35 36 36 37 38 39 39 40 40 41 42 42 43 43 43 43 43 43
28 26 25 24 22 21 22 23 23 24 25 25 26 26 27 28 29 30 31 31 32 33 34 34 35 36 37 37 38 39 39 40 40 41 42 42 43 44 44 44 43 43
30 28 27 27 25 23 23 24 25 24 23 23 24 24 25 26 27 29 30 30 30 30 32 32 34 35 35 36 38 38 39 40 40 41 42 43 44 44 44 45 44 44
30 29 29 28 28 27 25 25 25 25 24 23 22 22 23 24 27 28 29 29 28 27 28 29 30 31 31 33 35 36 38 39 41 42 43 43 44 44 44 44 43 43
31 30 29 29 29 29 28 27 25 25 25 24 22 22 22 23 26 28 29 29 28 27 27 27 27 27 28 30 32 33 35 38 39 41 42 43 44 44 44 44 43 42
33 32 30 29 29 29 29 28 27 27 26 25 24 23 23 24 26 27 29 30 31 32 31 29 29 29 30 31 32 33 35 37 38 40 41 42 43 43 43 42 42 42
31 31 30 29 28 28 29 29 29 28 27 27 27 25 26 27 28 28 30 31 32 33 32 31 31 30 30 31 32 33 34 36 38 39 40 41 41 41 42 42 41 41
24 25 27 27 27 28 29 30 30 29 28 28 28 29 29 29 29 30 30 31 32 33 33 32 30 29 30 31 31 32 33 35 37 38 39 41 42 41 42 42 41 41
19 20 22 23 24 26 28 30 31 30 29 29 29 30 31 31 31 31 31 31 33 34 35 33 29 28 30 31 31 31 32 33 35 37 39 40 41 41 42 42 41 41
19 20 20 20 21 23 25 27 28 30 30 31 31 32 32 32 32 33 33 33 33 34 36 35 31 29 30 31 31 31 31 32 33 35 37 39 41 41 41 41 41 41
20 21 21 21 21 21 22 23 25 26 28 30 32 34 34 34 34 34 35 35 35 35 37 37 34 31 31 32 32 32 32 32 33 34 36 38 39 39 40 40 41 41
20 21 21 22 21 21 22 22 23 24 26 28 31 33 35 36 36 36 37 37 38 38 38 39 38 35 33 33 34 34 33 33 33 34 35 37 37 38 39 40 41 42
21 21 21 22 22 22 22 22 22 23 24 26 29 31 33 35 36 38 39 39 40 40 40 40 40 39 37 36 36 36 36 35 34 34 36 37 37 36 37 39 41 42
21 21 21 22 23 23 23 23 23 22 23 25 27 29 32 34 36 37 39 40 41 42 42 42 42 41 40 39 38 37 36 35 35 35 37 38 37 37 38 39 40 41
Wind_Direction
272 270 268 265 263 262 260 258 257 257 258 259 261 263 264 263 263 262 261 262 262 262 262 262 261 260 258 257 255 255 255 255 256 256 254 254 255 258 259 259 260 259
276 276 275 272 269 266 263 261 260 261 263 264 264 264 264 262 261 260 260 261 261 261 262 261 261 261 259 257 256 255 255 255 255 254 253 253 254 257 259 260 260 259
279 278 277 276 274 270 267 263 261 264 269 268 265 263 262 261 259 258 259 260 261 261 261 260 261 261 259 258 257 256 255 255 255 255 254 253 254 257 258 259 259 258
282 282 281 278 276 273 269 264 264 269 271 269 266 264 260 258 257 256 257 259 260 261 261 260 260 260 259 258 258 256 255 255 256 256 254 254 254 256 256 256 255 255
286 284 282 280 278 276 272 268 266 268 269 269 269 266 262 259 256 254 255 257 259 260 260 260 259 259 258 258 257 256 255 254 255 255 255 255 254 254 255 253 252 251
294 286 281 279 278 276 274 273 272 271 272 274 275 272 268 264 258 256 255 256 257 258 259 259 259 259 258 257 256 255 255 254 255 255 255 255 255 254 254 253 251 250
311 294 284 279 276 274 275 278 280 280 280 280 278 275 273 269 263 260 259 257 257 257 258 259 259 259 258 257 256 255 254 254 254 254 254 256 256 255 255 255 254 252
328 312 295 283 276 274 275 279 281 282 281 278 275 275 274 271 267 265 262 260 258 257 258 258 258 258 258 257 255 254 254 253 253 253 255 257 258 257 257 256 255 253
332 325 308 291 282 276 276 279 281 281 280 277 276 276 274 272 269 267 264 262 260 259 260 260 259 259 257 255 254 254 254 253 253 253 255 257 259 259 258 257 256 256
327 328 317 300 291 285 281 280 281 282 281 280 279 277 274 273 270 268 266 264 262 262 262 261 261 261 259 256 255 254 254 253 253 254 255 257 258 258 258 257 257 257
319 324 320 307 296 293 291 288 285 284 283 282 282 280 277 274 272 269 267 265 264 263 263 263 264 264 262 260 257 256 255 254 253 253 255 256 257 257 257 256 257 258
311 314 317 312 300 294 294 293 291 289 286 285 284 284 282 278 275 272 269 267 267 264 263 264 264 264 262 260 259 258 257 256 253 252 253 254 255 256 256 256 257 258
306 305 308 311 307 301 298 296 294 292 290 289 287 285 285 283 280 277 273 270 269 267 265 265 263 262 261 260 260 259 259 257 253 251 252 253 254 255 256 257 257 258
304 301 300 302 305 305 304 303 300 294 291 290 288 287 287 287 285 283 278 274 271 269 268 266 263 262 262 262 262 261 259 258 255 253 252 253 254 255 256 257 258 259
305 302 298 297 298 299 300 302 302 299 294 289 288 290 290 289 288 286 283 277 273 271 270 267 265 264 265 266 265 263 261 260 259 258 257 256 256 256 257 258 259 261
307 305 301 298 296 296 294 294 295 296 295 291 288 288 289 288 286 285 283 280 276 274 273 271 271 272 273 272 270 267 265 263 262 261 261 261 260 260 260 260 261 262
308 307 305 302 299 298 295 292 290 289 289 289 285 283 282 282 281 282 281 279 276 275 274 274 276 278 278 277 275 272 269 265 263 262 260 260 261 262 262 263 264 264
307 306 304 303 302 300 297 294 291 287 285 284 281 278 276 274 275 276 276 274 273 273 273 274 277 279 278 278 277 275 271 267 264 262 260 259 259 260 261 263 264 264
307 306 304 302 298 296 295 293 292 290 288 286 282 278 273 270 271 271 270 270 271 271 271 274 277 279 280 279 278 275 272 269 265 263 261 261 261 260 261 262 262 263
306 304 304 302 297 293 291 290 290 290 289 287 285 283 280 276 273 271 268 268 269 269 270 271 274 278 280 280 278 276 273 270 267 264 262 261 261 260 260 261 261 261
312 308 307 305 301 296 292 290 290 289 287 284 282 282 282 281 280 278 274 270 268 268 268 268 270 275 277 277 277 276 274 271 268 265 262 260 259 258 258 259 259 260
316 316 314 313 309 304 299 297 294 291 288 285 282 280 279 279 279 280 279 277 273 270 268 266 268 272 274 275 275 275 274 273 270 267 264 262 260 257 256 257 257 259
314 314 314 314 314 312 308 304 300 296 293 288 285 282 280 279 278 277 277 278 277 274 271 268 267 268 271 273 273 272 272 272 271 269 267 265 262 259 257 255 255 256
314 313 312 312 313 313 312 310 306 301 297 292 289 286 284 282 280 278 276 276 276 276 274 271 268 267 268 270 271 270 270 269 269 270 268 266 264 263 259 256 253 254
312 312 312 313 312 312 311 311 309 306 302 297 293 290 288 285 283 281 279 278 277 276 275 273 269 266 264 266 268 269 269 267 266 267 267 267 266 265 262 258 255 253
308 308 309 311 312 312 311 310 310 310 309 306 301 296 293 289 286 284 282 281 280 279 278 277 274 270 266 266 268 270 270 269 266 264 265 267 267 266 263 260 257 255